Printer-friendly version

IAU Minor Planet Center

Minor Planet Center

MPEC 2008-K42 : 2008 DS83

The following Minor Planet Electronic Circular may be linked-to from your own Web pages, but must not otherwise be redistributed electronically.


Read MPEC 2008-K41 Read MPEC 2008-K43


M.P.E.C. 2008-K42                                Issued 2008 May 27, 13:27 UT

     The Minor Planet Electronic Circulars contain information on unusual
         minor planets and routine data on comets.  They are published
   on behalf of Commission 20 of the International Astronomical Union by the
          Minor Planet Center, Smithsonian Astrophysical Observatory,
                          Cambridge, MA 02138, U.S.A.

             Prepared using the Tamkin Foundation Computer Network

                              MPC@CFA.HARVARD.EDU
          URL http://www.cfa.harvard.edu/iau/mpc.html  ISSN 1523-6714

                                   2008 DS83

Observations:
     K08D83S* C2008 02 24.39530 11 12 00.63 +04 04 11.4                 EK042691
     K08D83S  C2008 02 24.41287 11 11 59.66 +04 04 15.4                 EK042691
     K08D83S  C2008 02 24.43046 11 11 58.72 +04 04 18.5                 EK042691
     K08D83S  C2008 03 05.32222 11 02 25.90 +04 50 00.3          20.4 V EK042G96
     K08D83S  C2008 03 05.32726 11 02 25.58 +04 50 01.9          20.3 V EK042G96
     K08D83S  C2008 03 05.33234 11 02 25.26 +04 50 03.5          20.6 V EK042G96
     K08D83S  C2008 03 05.33737 11 02 24.93 +04 50 04.9          20.6 V EK042G96
     K08D83S  C2008 03 28.19700 10 38 16.44 +06 47 42.4          21.1 V EK042G96
     K08D83S  C2008 03 28.20119 10 38 16.15 +06 47 43.8          20.9 V EK042G96
     K08D83S  C2008 03 28.20538 10 38 15.93 +06 47 45.0          20.9 V EK042G96
     K08D83S  C2008 03 28.20955 10 38 15.68 +06 47 45.6          21.1 V EK042G96
     K08D83S  C2008 03 29.24747 10 37 19.02 +06 52 15.6          20.8 V EK042G96
     K08D83S  C2008 03 29.25422 10 37 18.62 +06 52 17.6          20.8 V EK042G96
     K08D83S  C2008 03 29.26104 10 37 18.22 +06 52 19.1          21.0 V EK042G96
     K08D83S  C2008 03 29.26778 10 37 17.83 +06 52 21.0          20.6 V EK042G96
     K08D83S  C2008 05 03.14952 10 27 56.59 +07 23 16.5          21.6 V EK042G96
     K08D83S  C2008 05 03.15605 10 27 56.73 +07 23 15.3          21.5 V EK042G96
     K08D83S  C2008 05 03.16256 10 27 56.91 +07 23 14.4          21.0 V EK042G96
     K08D83S  C2008 05 03.16902 10 27 57.06 +07 23 13.0          21.4 V EK042G96
     K08D83S 4C2008 05 24.31231 10 46 06.48 +05 29 23.4          20.9 R EK042F65
     K08D83S 4C2008 05 24.32971 10 46 07.71 +05 29 15.8          20.9 R EK042F65
     K08D83S 4C2008 05 24.36284 10 46 10.13 +05 29 00.3          20.6 R EK042F65
     K08D83S 4C2008 05 25.27429 10 47 19.28 +05 21 52.4          20.8 R EK042F65
     K08D83S 4C2008 05 25.28843 10 47 20.34 +05 21 45.7          20.4 R EK042F65
     K08D83S 4C2008 05 25.30831 10 47 21.83 +05 21 36.4          20.7 R EK042F65
     K08D83S HC2008 05 26.16017 10 48 27.94 +05 14 45.5                 EK042291
     K08D83S  C2008 05 26.16390 10 48 28.19 +05 14 42.7                 EK042291
     K08D83S  C2008 05 27.21362 10 49 51.43 +05 06 05.7                 EK042291
     K08D83S  C2008 05 27.21735 10 49 51.72 +05 06 03.4                 EK042291
     K08D83S  C2008 05 27.22107 10 49 51.98 +05 06 00.5                 EK042291

Observer details:
291 LPL/Spacewatch II.  Observer R. S. McMillan.  1.8-m f/2.7 reflector + CCD.
691 Steward Observatory, Kitt Peak.  Observer T. H. Bressi.  0.9-m f/3
    reflector + CCD.
F65 Haleakala-Faulkes Telescope North.  Observer J. Bedient.  2.0-m
    Ritchey-Chretien + CCD.
G96 Mt. Lemmon Survey.  Observer A. D. Grauer.  Measurers E. C. Beshore,
    A. Boattini, G. J. Garradd, A. R. Gibbs, A. D. Grauer, R. E. Hill,
    R. A. Kowalski, S. M. Larson, R. H. McNaught.  1.5-m reflector + CCD.

Orbital elements:
2008 DS83
Epoch 2008 May 14.0 TT = JDT 2454600.5                  MPC
M 345.17146              (2000.0)            P               Q
n   0.17046080     Peri.  287.53592     -0.30777276     +0.95127684
a   3.2214622      Node   324.52179     -0.86029764     -0.28660888
e   0.5716684      Incl.    1.84270     -0.40640362     -0.11370017
P   5.78           H   18.5           G   0.15           U   4
Residuals in seconds of arc
080224 691  0.1+  0.6+    080328 G96  0.1-  0.3-    080524 F65  0.2-  0.2+
080224 691  0.2-  0.4+    080329 G96  0.3+  0.1-    080524 F65  0.0   0.2+
080224 691  0.0   0.8-    080329 G96  0.0   0.2+    080525 F65  0.3-  0.0
080305 G96  0.0   0.1-    080329 G96  0.2-  0.0     080525 F65  0.0   0.0
080305 G96  0.2+  0.1-    080329 G96  0.3-  0.2+    080525 F65  0.3+  0.2+
080305 G96  0.4+  0.0     080503 G96  0.1-  0.3-    080526 291  0.4+  0.6+
080305 G96  0.4+  0.2-    080503 G96  0.3-  0.3-    080526 291  0.1-  0.4-
080328 G96  0.3+  0.2-    080503 G96  0.1+  0.1-    080527 291  0.1+  0.6+
080328 G96  0.4-  0.1+    080503 G96  0.0   0.3-    080527 291  0.0   0.2+
080328 G96  0.0   0.2+    080524 F65  0.3+  0.3-    080527 291  0.4-  0.9-

Ephemeris:
2008 DS83                a,e,i = 3.22, 0.57, 2                   q = 1.3799
Date    TT    R. A. (2000) Decl.     Delta      r     Elong.  Phase     V
2008 05 24    10 45.72   +05 31.8    1.125    1.611    97.7    38.5    21.3
2008 06 03    10 59.70   +04 04.8    1.153    1.560    91.9    40.5    21.4
2008 06 13    11 16.75   +02 17.2    1.178    1.514    86.9    42.1    21.4
2008 06 23    11 36.55   +00 10.8    1.202    1.473    82.8    43.2    21.4
2008 07 03    11 58.88   -02 12.3    1.224    1.439    79.3    44.0    21.4
2008 07 13    12 23.59   -04 49.4    1.246    1.412    76.5    44.4    21.4
2008 07 23    12 50.53   -07 36.3    1.269    1.393    74.2    44.6    21.4
2008 08 02    13 19.58   -10 27.9    1.295    1.382    72.3    44.4    21.5
2008 08 12    13 50.63   -13 18.4    1.326    1.380    70.9    43.9    21.5
2008 08 22    14 23.46   -16 00.6    1.364    1.387    69.7    43.1    21.6
2008 09 01    14 57.82   -18 27.5    1.411    1.403    68.6    42.0    21.6
2008 09 11    15 33.33   -20 32.6    1.468    1.427    67.5    40.7    21.7
2008 09 21    16 09.48   -22 10.7    1.536    1.458    66.3    39.1    21.8
2008 10 01    16 45.75   -23 18.7    1.615    1.497    64.9    37.3    21.9
2008 10 11    17 21.59   -23 55.6    1.705    1.541    63.3    35.4    22.0

Timothy B. Spahr             (C) Copyright 2008 MPC           M.P.E.C. 2008-K42

Read MPEC 2008-K41 Read MPEC 2008-K43


Our Web policy. Index to the CBAT/MPC/ICQ pages.


Valid HTML 4.01!